{"data":{"norad_id":44801,"intl_designator":"2019-080B","name":"INMARSAT GX5","alt_names":[],"object_type":"PAYLOAD","status":"ACTIVE","operator":null,"country":"IM","launch_date":"2019-11-26","launch_site_code":"FRGUI","launch_vehicle":null,"mission":null,"orbit_class":"UNKNOWN","rcs_meters":null,"size_class":null,"mass_kg":null,"dimensions":null,"purposes":["comms"],"wikipedia_slug":null,"has_3d_model":false,"image_url":null,"decayed_at":null,"tle_current":{"epoch":"2026-09-20T03:17:12.811776Z","epoch_age_seconds":53301,"freshness":"FRESH","line1":"1 44801U 19080B   26263.13695384  .00000071  00000+0  00000+0 0  9999","line2":"2 44801   0.0492   9.6787 0002180 175.1166 234.5506  1.00272974  7733","mean_motion":1.00272974,"eccentricity":0.000218,"inclination_deg":0.0492,"raan_deg":9.6787,"arg_perigee_deg":175.1166,"mean_anomaly_deg":234.5506,"bstar":0,"rev_number":773,"period_min":1436.0798753211,"perigee_km":35777.069805718,"apogee_km":35795.453483527,"semimajor_km":42164.398644622,"source":"CELESTRAK","updated_at":"2026-09-20T09:00:35.291033Z"}}}